OK1FRN-6 Weather Reports


time (UTC)temp
C
wind
direction
speed
KPH
gust
KPH
rain 1hr
cm
rain 24hr
cm
rain mn
cm
humidity
%
barometer
mb
20260503195244 19 315 0.0 0.0 0.00 0.00 0.00 35 1013.8
20260503194737 19 315 0.0 0.0 0.00 0.00 0.00 35 1013.7
20260503194231 20 318 0.0 1.6 0.00 0.00 0.00 35 1013.6
20260503193724 20 333 0.0 3.2 0.00 0.00 0.00 34 1013.7
20260503193217 20 327 0.0 1.6 0.00 0.00 0.00 34 1013.7
20260503192711 20 353 0.0 0.0 0.00 0.00 0.00 33 1013.5
20260503192204 20 31 0.0 0.0 0.00 0.00 0.00 33 1013.6
20260503191657 21 62 0.0 3.2 0.00 0.00 0.00 33 1013.5
20260503191150 21 95 3.2 8.0 0.00 0.00 0.00 34 1013.4
20260503190644 21 91 1.6 4.8 0.00 0.00 0.00 33 1013.4
20260503190137 21 101 1.6 4.8 0.00 0.00 0.00 33 1013.4
20260503185630 21 82 1.6 6.4 0.00 0.00 0.00 33 1013.4
20260503185123 21 99 1.6 4.8 0.00 0.00 0.00 33 1013.3
20260503184617 21 91 3.2 11.3 0.00 0.00 0.00 33 1013.3
20260503184110 21 77 3.2 6.4 0.00 0.00 0.00 32 1013.2
20260503183603 21 75 1.6 3.2 0.00 0.00 0.00 32 1013.1
20260503183056 21 94 1.6 4.8 0.00 0.00 0.00 32 1013.0
20260503182042 22 78 1.6 3.2 0.00 0.00 0.00 31 1013.0
20260503181028 22 87 3.2 6.4 0.00 0.00 0.00 30 1012.8
20260503180521 22 70 1.6 4.8 0.00 0.00 0.00 29 1012.8
20260503180014 22 70 1.6 4.8 0.00 0.00 0.00 29 1012.7
20260503175508 23 78 1.6 4.8 0.00 0.00 0.00 28 1012.8
20260503174453 23 60 1.6 3.2 0.00 0.00 0.00 26 1012.6
20260503173947 23 77 1.6 3.2 0.00 0.00 0.00 26 1012.6
20260503173439 23 100 3.2 4.8 0.00 0.00 0.00 25 1012.6
20260503172932 24 85 3.2 8.0 0.00 0.00 0.00 25 1012.6
20260503171918 25 65 3.2 8.0 0.00 0.00 0.00 23 1012.5
20260503171411 25 97 3.2 4.8 0.00 0.00 0.00 23 1012.5
20260503170356 25 81 1.6 6.4 0.00 0.00 0.00 22 1012.5
20260503150607 28 89 3.2 8.0 0.00 0.00 0.00 19 1013.1
20260503130813 29 61 3.2 8.0 0.00 0.00 0.00 19 1014.7
20260503130305 29 35 3.2 6.4 0.00 0.00 0.00 18 1014.8
20260503120134 28 86 4.8 6.4 0.00 0.00 0.00 21 1015.4
20260503110510 28 114 4.8 8.0 0.00 0.00 0.00 21 1016.3
20260503090210 26 148 3.2 6.4 0.00 0.00 0.00 25 1017.6
20260503081605 25 97 3.2 8.0 0.00 0.00 0.00 27 1018.0
20260503081058 25 232 3.2 4.8 0.00 0.00 0.00 28 1018.0
20260503080551 24 298 3.2 8.0 0.00 0.00 0.00 29 1018.0
20260503072455 22 117 1.6 4.8 0.00 0.00 0.00 33 1018.1
20260503071441 22 83 1.6 3.2 0.00 0.00 0.00 34 1018.2
20260503070934 21 193 1.6 3.2 0.00 0.00 0.00 36 1018.3
20260503070427 21 83 1.6 4.8 0.00 0.00 0.00 37 1018.3
20260503060311 12 75 0.0 0.0 0.00 0.00 0.00 57 1018.4
20260503054753 10 71 0.0 0.0 0.00 0.00 0.00 61 1018.4
20260503054247 10 85 0.0 0.0 0.00 0.00 0.00 61 1018.4
20260503053741 10 74 0.0 0.0 0.00 0.00 0.00 62 1018.4
20260503053236 9 90 0.0 0.0 0.00 0.00 0.00 64 1018.4
20260503052730 8 90 0.0 0.0 0.00 0.00 0.00 66 1018.4
20260503052224 7 90 0.0 0.0 0.00 0.00 0.00 67 1018.4
20260503051719 6 221 0.0 0.0 0.00 0.00 0.00 69 1018.4
20260503051213 6 225 0.0 0.0 0.00 0.00 0.00 69 1018.5
20260503050708 5 225 0.0 0.0 0.00 0.00 0.00 69 1018.5
20260503050202 5 225 0.0 0.0 0.00 0.00 0.00 68 1018.5
20260503045657 4 225 0.0 0.0 0.00 0.00 0.00 68 1018.6
20260503045151 3 225 0.0 0.0 0.00 0.00 0.00 68 1018.5
20260503044646 3 225 0.0 0.0 0.00 0.00 0.00 68 1018.5
20260503044141 3 225 0.0 0.0 0.00 0.00 0.00 68 1018.5
20260503043130 3 225 0.0 0.0 0.00 0.00 0.00 68 1018.5
20260503042624 3 225 0.0 0.0 0.00 0.00 0.00 67 1018.5
20260503042119 3 225 0.0 0.0 0.00 0.00 0.00 67 1018.5
20260503041614 3 225 0.0 0.0 0.00 0.00 0.00 67 1018.4
20260503041108 3 225 0.0 0.0 0.00 0.00 0.00 67 1018.4
20260503040603 3 225 0.0 0.0 0.00 0.00 0.00 66 1018.5
20260503040057 3 225 0.0 0.0 0.00 0.00 0.00 66 1018.4
20260503035552 3 225 0.0 0.0 0.00 0.00 0.00 66 1018.3
20260503034541 3 225 0.0 0.0 0.00 0.00 0.00 65 1018.3
20260503033530 3 225 0.0 0.0 0.00 0.00 0.00 65 1018.3
20260503033025 3 225 0.0 0.0 0.00 0.00 0.00 65 1018.3
20260503032520 3 225 0.0 0.0 0.00 0.00 0.00 64 1018.4
20260503032014 3 225 0.0 0.0 0.00 0.00 0.00 64 1018.3
20260503031510 3 225 0.0 0.0 0.00 0.00 0.00 64 1018.3
20260503030458 3 225 0.0 0.0 0.00 0.00 0.00 64 1018.3
20260503025953 3 225 0.0 0.0 0.00 0.00 0.00 63 1018.3
20260503025447 3 225 0.0 0.0 0.00 0.00 0.00 63 1018.3
20260503024942 4 225 0.0 0.0 0.00 0.00 0.00 62 1018.4
20260503024436 4 225 0.0 0.0 0.00 0.00 0.00 62 1018.4
20260503023931 4 225 0.0 0.0 0.00 0.00 0.00 62 1018.4
20260503023425 4 225 0.0 0.0 0.00 0.00 0.00 62 1018.4
20260503022920 4 225 0.0 0.0 0.00 0.00 0.00 62 1018.4
20260503022415 4 225 0.0 0.0 0.00 0.00 0.00 62 1018.5
20260503021909 4 225 0.0 0.0 0.00 0.00 0.00 62 1018.4
20260503021404 4 225 0.0 0.0 0.00 0.00 0.00 62 1018.5
20260503020858 4 225 0.0 0.0 0.00 0.00 0.00 61 1018.5
20260503020353 4 225 0.0 0.0 0.00 0.00 0.00 61 1018.5
20260503015847 4 225 0.0 0.0 0.00 0.00 0.00 61 1018.6
20260503015342 5 225 0.0 0.0 0.00 0.00 0.00 61 1018.6
20260503014836 5 225 0.0 0.0 0.00 0.00 0.00 61 1018.6
20260503014331 5 225 0.0 0.0 0.00 0.00 0.00 60 1018.5
20260503013825 5 225 0.0 0.0 0.00 0.00 0.00 60 1018.5
20260503013320 5 225 0.0 0.0 0.00 0.00 0.00 60 1018.5
20260503012814 5 225 0.0 0.0 0.00 0.00 0.00 60 1018.5
20260503012309 5 225 0.0 0.0 0.00 0.00 0.00 60 1018.5
20260503011803 5 225 0.0 0.0 0.00 0.00 0.00 59 1018.5
20260503011258 5 225 0.0 0.0 0.00 0.00 0.00 59 1018.6
20260503010752 5 225 0.0 0.0 0.00 0.00 0.00 59 1018.6
20260503010247 5 225 0.0 0.0 0.00 0.00 0.00 59 1018.6
20260503005741 5 225 0.0 0.0 0.00 0.00 0.00 58 1018.7
20260503005236 5 225 0.0 0.0 0.00 0.00 0.00 58 1018.7
20260503004730 5 225 0.0 0.0 0.00 0.00 0.00 58 1018.7
20260503004225 5 225 0.0 0.0 0.00 0.00 0.00 57 1018.8
20260503003719 6 252 0.0 0.0 0.00 0.00 0.00 57 1018.8
20260503003214 6 263 0.0 0.0 0.00 0.00 0.00 56 1018.8
20260503002203 6 288 0.0 0.0 0.00 0.00 0.00 55 1018.8
20260503001657 6 306 0.0 0.0 0.00 0.00 0.00 55 1018.9
20260503001152 6 315 0.0 0.0 0.00 0.00 0.00 55 1018.9
20260503000646 6 306 0.0 0.0 0.00 0.00 0.00 54 1018.9
20260503000140 7 315 0.0 0.0 0.00 0.00 0.00 54 1019.0
20260502235635 7 315 0.0 0.0 0.00 0.00 0.00 54 1019.1
20260502235129 7 315 0.0 0.0 0.00 0.00 0.00 54 1019.1
20260502234118 7 315 0.0 0.0 0.00 0.00 0.00 54 1019.1
20260502233613 7 311 0.0 0.0 0.00 0.00 0.00 53 1019.1
20260502233106 7 293 0.0 0.0 0.00 0.00 0.00 53 1019.1
20260502232601 7 315 0.0 0.0 0.00 0.00 0.00 53 1019.2
20260502232055 7 315 0.0 0.0 0.00 0.00 0.00 53 1019.2
20260502231549 7 315 0.0 0.0 0.00 0.00 0.00 52 1019.2
20260502231044 7 315 0.0 0.0 0.00 0.00 0.00 52 1019.3
20260502230538 8 315 0.0 0.0 0.00 0.00 0.00 52 1019.2
20260502230032 8 312 0.0 0.0 0.00 0.00 0.00 51 1019.2
20260502225527 8 315 0.0 0.0 0.00 0.00 0.00 51 1019.3
20260502224515 8 315 0.0 0.0 0.00 0.00 0.00 51 1019.2
20260502224009 8 315 0.0 0.0 0.00 0.00 0.00 50 1019.3
20260502223504 8 315 0.0 0.0 0.00 0.00 0.00 50 1019.4
20260502222452 8 315 0.0 0.0 0.00 0.00 0.00 49 1019.4
20260502221947 9 315 0.0 0.0 0.00 0.00 0.00 49 1019.4
20260502221441 9 315 0.0 0.0 0.00 0.00 0.00 48 1019.4
20260502220935 9 312 0.0 0.0 0.00 0.00 0.00 48 1019.4
20260502220429 9 322 0.0 0.0 0.00 0.00 0.00 48 1019.4
20260502215923 10 315 0.0 0.0 0.00 0.00 0.00 47 1019.4
20260502215418 10 315 0.0 0.0 0.00 0.00 0.00 47 1019.4
20260502214912 10 305 0.0 0.0 0.00 0.00 0.00 47 1019.4
20260502214406 10 311 0.0 0.0 0.00 0.00 0.00 46 1019.3
20260502213900 10 315 0.0 0.0 0.00 0.00 0.00 46 1019.3
20260502213354 10 315 0.0 0.0 0.00 0.00 0.00 45 1019.4
20260502212849 10 315 0.0 0.0 0.00 0.00 0.00 45 1019.3
20260502212343 10 305 0.0 0.0 0.00 0.00 0.00 45 1019.4
20260502211837 10 319 0.0 0.0 0.00 0.00 0.00 44 1019.4
20260502211331 11 316 0.0 0.0 0.00 0.00 0.00 44 1019.4
20260502210825 11 319 0.0 0.0 0.00 0.00 0.00 43 1019.4
20260502210319 11 325 0.0 0.0 0.00 0.00 0.00 43 1019.4
20260502205813 11 315 0.0 0.0 0.00 0.00 0.00 42 1019.4
20260502205307 11 309 0.0 0.0 0.00 0.00 0.00 42 1019.4
20260502204801 12 315 0.0 0.0 0.00 0.00 0.00 41 1019.3
20260502204255 12 312 0.0 0.0 0.00 0.00 0.00 41 1019.3
20260502203749 12 306 0.0 0.0 0.00 0.00 0.00 40 1019.3
20260502202737 12 0 0.0 0.0 0.00 0.00 0.00 39 1019.5
20260502201725 13 0 0.0 0.0 0.00 0.00 0.00 38 1019.5
20260502201219 13 0 0.0 0.0 0.00 0.00 0.00 38 1019.5
20260502200713 13 0 0.0 0.0 0.00 0.00 0.00 37 1019.5
20260502195701 14 0 0.0 0.0 0.00 0.00 0.00 37 1019.4